Wind_Speed
28 29 29 30 30 31 31 32 32 34 35 36 38 39 40 41 40 41 41 41 40 40 40 40 40 39 38 38 37 37 37 37 37 37 37 37 37 37 38 38 39 40
29 30 31 31 32 33 33 33 34 35 37 38 39 40 41 42 42 43 43 43 42 42 42 42 41 40 39 38 38 37 37 36 37 37 37 37 38 38 39 39 40 41
30 31 32 33 34 34 35 35 36 37 38 39 40 41 42 43 43 44 45 45 44 43 43 43 42 41 40 39 38 38 37 37 37 37 37 38 38 38 38 39 40 41
31 32 33 34 35 35 36 36 37 38 39 40 41 42 43 44 45 46 46 46 45 45 45 45 43 42 41 40 39 39 38 38 38 38 38 38 38 38 38 39 40 40
31 32 33 34 36 36 37 38 38 39 40 41 42 43 44 45 46 46 46 46 46 47 47 46 44 43 42 41 40 40 40 39 39 39 39 39 39 39 39 39 39 40
31 32 33 35 36 37 38 39 39 40 41 42 43 44 45 46 46 47 47 47 47 47 47 46 44 43 42 42 41 41 41 40 40 39 39 39 39 40 40 40 40 41
33 33 34 35 36 37 38 39 40 41 42 43 44 45 46 47 47 48 48 48 48 48 47 45 44 44 43 42 42 41 41 40 40 40 40 40 41 41 42 42 42 42
34 34 34 35 35 36 37 39 40 42 43 44 45 46 47 48 49 49 49 49 49 48 47 46 45 44 43 42 41 41 41 41 41 41 42 43 43 43 43 43 43 43
34 34 34 34 35 36 37 39 41 42 44 45 46 47 48 49 49 50 49 49 48 48 47 47 46 44 44 43 42 42 42 42 42 43 43 44 44 44 44 44 44 44
33 33 33 34 35 37 38 40 41 43 44 46 47 48 49 49 49 49 49 48 48 48 47 46 46 45 45 45 44 44 43 43 44 44 45 45 45 46 46 46 46 46
32 33 34 35 36 37 39 40 42 43 45 46 47 48 48 49 48 48 48 48 47 47 46 46 46 46 45 45 45 44 45 45 46 47 48 48 48 48 49 48 48 48
32 33 34 35 36 38 39 41 42 44 45 46 46 47 47 47 47 47 47 46 46 46 46 46 45 45 45 45 45 46 47 47 48 48 49 49 49 49 50 50 50 50
32 33 34 36 37 38 39 41 42 43 44 45 45 45 46 46 46 45 45 45 45 45 45 45 44 45 46 46 47 47 48 48 48 48 48 49 49 49 50 50 50 51
32 34 35 36 37 38 39 40 41 42 42 43 43 44 44 44 44 44 44 44 44 44 44 45 45 46 46 47 47 47 48 48 48 49 48 48 49 49 49 50 50 50
33 34 35 36 37 38 39 39 39 40 41 41 42 42 42 42 42 43 43 43 44 44 45 45 46 47 47 46 47 47 48 49 49 49 49 48 48 48 48 48 49 49
33 34 35 36 36 36 37 37 38 39 39 40 40 40 40 41 41 42 42 42 43 44 45 46 46 46 47 47 47 48 48 48 48 48 48 48 48 48 48 48 49 49
32 33 34 34 34 35 35 36 37 38 38 38 38 39 39 40 40 41 41 42 43 44 44 45 45 46 47 47 48 48 48 48 48 48 48 48 48 49 49 49 49 50
31 32 32 33 34 34 35 36 36 36 37 37 38 39 39 40 40 41 41 42 42 43 43 44 45 46 46 47 47 48 48 48 48 48 49 49 49 49 50 50 50 51
31 31 32 33 34 34 35 35 35 36 37 38 38 38 39 39 40 40 40 41 41 42 43 44 45 45 46 46 46 47 48 48 49 49 49 50 50 50 50 50 50 51
30 31 32 33 33 34 34 35 35 36 37 37 37 38 38 39 39 39 40 40 41 42 43 43 44 44 44 45 46 47 47 48 49 49 50 50 50 50 51 51 52 52
31 32 32 33 33 34 34 35 35 36 36 36 37 37 37 37 38 39 39 40 41 42 42 42 42 43 44 45 46 47 47 48 49 49 50 50 50 51 51 52 53 55
31 32 32 33 33 34 34 34 35 35 35 35 35 35 36 37 38 39 39 40 40 41 41 41 42 43 44 45 45 46 47 48 48 48 49 49 50 51 53 54 56 57
31 32 33 33 33 34 34 34 34 34 34 34 34 35 36 36 37 38 39 39 39 39 40 40 41 43 44 45 46 46 46 47 47 47 48 49 51 52 54 56 58 60
32 32 33 33 33 33 33 33 33 33 33 33 34 34 35 36 37 37 37 37 37 38 39 40 42 43 44 45 46 46 46 46 47 47 48 50 52 54 56 57 60 62
32 32 32 32 32 32 33 32 32 32 32 32 33 34 35 36 36 36 35 36 36 38 39 40 42 43 44 45 46 46 46 47 47 47 49 50 52 54 56 58 61 62
31 31 31 31 31 31 31 31 30 31 31 32 33 34 34 34 34 34 34 35 36 37 39 41 42 43 44 45 46 46 46 46 47 48 49 51 53 55 57 60 62 61
Wind_Direction
287 287 288 288 289 289 290 290 292 293 294 295 296 297 299 301 302 304 306 307 307 306 306 306 304 302 300 298 295 293 291 289 287 286 286 286 287 288 289 290 290 291
284 285 286 287 289 289 290 290 291 291 292 293 294 295 297 300 301 303 305 305 305 305 306 306 305 303 301 300 298 295 293 291 290 288 287 287 287 287 288 288 289 289
282 283 285 286 287 288 288 289 290 290 290 291 292 294 296 298 300 301 303 304 304 305 306 306 305 303 302 301 299 297 295 294 292 291 289 288 288 288 287 288 288 287
282 283 283 284 286 286 287 287 288 288 289 289 290 292 295 296 298 299 301 303 304 305 306 306 305 304 303 302 300 299 297 296 294 293 291 290 289 288 288 288 287 287
282 282 282 283 284 285 285 285 286 286 287 288 289 291 293 294 296 298 301 302 304 305 306 306 306 306 305 303 302 300 299 297 296 294 293 292 291 290 289 288 288 287
282 281 281 282 282 282 283 284 284 285 286 287 288 290 291 293 296 299 301 303 304 305 306 306 307 306 305 304 302 301 299 298 296 295 294 293 293 293 292 291 290 289
282 280 280 279 280 281 282 282 283 284 285 286 288 289 292 294 297 300 302 303 303 304 305 306 306 305 304 303 301 300 299 298 297 296 295 294 294 294 293 292 291 290
280 278 278 278 279 281 282 282 283 284 285 286 288 290 293 296 299 301 302 302 304 305 306 306 305 304 302 301 300 299 298 297 296 296 295 295 295 294 293 293 292 291
279 278 278 279 280 281 282 282 283 284 285 287 289 291 294 297 299 301 302 303 304 305 305 304 303 302 300 299 299 298 297 297 296 295 295 294 294 294 293 292 291 291
279 279 280 280 281 281 282 282 283 284 285 287 290 293 295 298 299 301 302 303 304 304 303 302 301 301 300 300 300 299 299 299 298 297 297 296 295 294 293 292 291 290
282 282 282 282 282 282 282 282 283 284 286 289 292 294 297 299 300 301 302 303 303 302 302 301 301 301 301 301 301 301 301 300 300 299 298 297 296 294 293 292 290 289
284 284 284 283 283 283 283 284 285 287 289 291 294 296 298 300 301 301 302 302 301 301 301 301 301 301 301 301 301 301 300 300 299 298 297 297 296 295 294 292 291 289
285 285 285 284 285 285 286 287 288 290 292 294 296 298 299 300 301 301 301 301 301 300 300 301 301 301 301 301 300 300 299 299 298 298 297 297 296 295 294 293 291 290
285 285 285 286 286 287 288 289 291 293 295 297 298 299 300 300 300 300 300 300 300 300 300 300 300 300 300 300 300 300 300 300 299 298 298 297 296 294 293 292 291 290
286 286 286 287 287 288 290 292 294 296 297 298 299 299 299 299 299 299 299 299 299 299 299 299 300 300 300 301 301 302 302 301 300 300 299 298 297 296 294 293 292 291
286 286 286 287 289 291 293 295 296 297 298 298 298 298 298 298 298 298 298 298 299 299 300 300 301 302 303 303 303 303 303 303 302 302 301 300 300 299 298 296 295 293
286 287 288 290 292 294 296 297 298 298 298 298 298 298 297 297 297 297 298 299 299 300 301 302 303 304 305 305 305 305 305 305 304 304 303 302 302 300 299 298 297 295
288 290 292 294 296 297 297 297 297 298 298 298 298 297 297 297 298 299 299 300 301 302 304 305 306 307 307 308 308 308 307 307 307 306 305 304 303 301 300 298 297 295
292 294 295 296 296 296 297 297 298 298 299 298 298 297 298 299 300 300 301 302 304 305 307 308 309 309 310 310 310 310 310 309 309 308 307 306 305 304 302 301 299 297
294 295 295 295 296 296 297 298 299 299 298 297 298 299 300 301 301 302 303 305 306 308 309 310 311 312 312 312 312 312 312 312 312 311 311 310 309 307 306 304 303 301
294 294 294 295 296 297 298 299 298 298 297 298 300 301 302 302 303 304 306 307 308 310 311 312 313 314 314 315 315 315 316 316 315 315 314 313 312 311 309 307 305 304
293 293 294 296 297 298 298 298 297 297 298 300 301 302 302 303 305 306 308 309 311 312 314 315 315 316 316 317 318 318 319 318 318 317 316 315 315 313 312 311 309 307
292 294 296 297 297 297 297 297 297 299 300 302 302 303 304 306 307 308 309 311 313 314 315 316 317 318 319 320 320 321 321 320 320 319 319 318 318 317 317 315 314 312
294 295 296 297 296 296 296 298 300 301 302 303 303 305 306 307 308 310 312 314 315 316 317 319 320 321 322 323 323 323 323 323 322 322 322 322 322 322 320 319 318 317
295 295 295 295 295 296 298 300 301 302 302 303 305 306 307 308 310 313 315 316 318 319 321 322 323 324 325 325 326 326 326 326 325 325 325 326 326 325 324 323 323 322
294 294 294 295 296 298 300 301 301 302 302 304 305 307 309 312 314 316 317 318 320 322 324 325 326 327 328 329 329 329 328 328 327 328 328 329 328 328 327 328 329 327
Height
5810 5810 5810 5809 5809 5808 5807 5807 5806 5805 5804 5803 5802 5801 5800 5799 5797 5796 5795 5793 5791 5790 5788 5786 5785 5783 5781 5780 5778 5776 5775 5773 5772 5770 5769 5768 5766 5765 5763 5762 5761 5760
5807 5807 5806 5806 5805 5805 5804 5803 5802 5802 5801 5800 5799 5798 5796 5795 5793 5792 5790 5789 5788 5786 5784 5782 5780 5778 5776 5775 5773 5771 5770 5768 5767 5765 5764 5763 5761 5760 5758 5757 5755 5754
5804 5804 5803 5802 5802 5801 5801 5800 5799 5798 5798 5797 5795 5794 5793 5791 5790 5788 5787 5785 5783 5782 5780 5778 5776 5774 5772 5770 5768 5766 5765 5763 5761 5760 5758 5757 5756 5755 5753 5752 5750 5749
5801 5800 5800 5799 5799 5798 5797 5797 5796 5795 5794 5793 5792 5790 5789 5787 5786 5784 5783 5781 5779 5777 5775 5773 5771 5769 5767 5765 5763 5761 5760 5758 5756 5755 5753 5752 5751 5749 5748 5746 5744 5743
5798 5797 5796 5796 5795 5795 5794 5793 5793 5792 5791 5790 5788 5787 5785 5784 5782 5780 5778 5776 5774 5772 5770 5768 5766 5764 5762 5760 5758 5756 5754 5753 5751 5749 5748 5746 5745 5743 5742 5740 5739 5737
5794 5793 5793 5792 5792 5791 5791 5790 5789 5788 5787 5786 5784 5783 5781 5780 5778 5776 5774 5772 5770 5768 5766 5764 5761 5759 5757 5755 5753 5751 5749 5747 5745 5744 5742 5740 5738 5737 5735 5734 5733 5731
5791 5790 5789 5789 5788 5787 5787 5786 5785 5784 5783 5781 5780 5778 5776 5775 5773 5771 5769 5767 5765 5763 5760 5758 5756 5754 5752 5750 5747 5745 5743 5742 5740 5738 5736 5734 5732 5731 5729 5727 5726 5724
5787 5786 5785 5784 5784 5783 5782 5782 5781 5779 5778 5776 5775 5773 5771 5769 5767 5765 5763 5761 5759 5757 5755 5753 5751 5748 5746 5744 5742 5740 5738 5736 5734 5732 5730 5728 5726 5725 5723 5721 5719 5717
5782 5781 5781 5780 5780 5779 5778 5777 5776 5774 5773 5771 5770 5768 5766 5764 5762 5760 5758 5756 5753 5751 5749 5747 5745 5743 5741 5739 5737 5734 5732 5730 5728 5726 5724 5723 5721 5718 5717 5715 5713 5711
5778 5777 5776 5776 5775 5774 5773 5772 5771 5770 5768 5767 5765 5763 5761 5759 5757 5755 5753 5751 5748 5746 5743 5741 5739 5737 5735 5732 5730 5728 5726 5724 5722 5720 5718 5716 5714 5712 5710 5708 5706 5705
5773 5773 5772 5771 5770 5769 5768 5767 5766 5765 5763 5762 5760 5758 5756 5754 5752 5750 5748 5745 5743 5741 5738 5736 5733 5731 5729 5726 5724 5722 5720 5718 5715 5713 5711 5709 5707 5705 5703 5701 5699 5697
5769 5768 5767 5766 5766 5765 5764 5763 5761 5760 5758 5757 5755 5753 5751 5749 5747 5745 5743 5740 5738 5736 5733 5731 5728 5726 5723 5721 5718 5716 5714 5712 5709 5707 5705 5702 5700 5697 5695 5693 5691 5689
5764 5763 5763 5762 5761 5760 5759 5758 5756 5755 5753 5752 5750 5748 5746 5744 5742 5740 5738 5735 5733 5730 5728 5726 5723 5720 5718 5715 5713 5710 5708 5705 5703 5701 5698 5696 5693 5690 5688 5685 5683 5681
5760 5759 5758 5757 5757 5756 5754 5753 5752 5750 5749 5747 5746 5744 5742 5740 5737 5735 5733 5730 5728 5725 5723 5721 5718 5715 5713 5710 5707 5704 5701 5699 5697 5694 5692 5689 5687 5684 5681 5678 5676 5673
5756 5755 5754 5753 5752 5751 5750 5749 5748 5746 5745 5743 5741 5739 5737 5735 5733 5731 5728 5726 5723 5721 5718 5715 5712 5710 5707 5704 5701 5698 5695 5692 5690 5687 5685 5682 5679 5677 5674 5671 5668 5665
5752 5751 5750 5749 5748 5747 5746 5745 5744 5742 5741 5739 5737 5735 5733 5731 5729 5726 5724 5721 5718 5715 5712 5709 5706 5703 5700 5697 5694 5691 5688 5686 5683 5680 5677 5675 5672 5669 5666 5663 5660 5657
5748 5747 5746 5745 5744 5743 5742 5741 5739 5738 5736 5734 5733 5731 5729 5726 5724 5721 5719 5716 5713 5710 5707 5704 5700 5697 5694 5691 5687 5684 5682 5679 5676 5673 5670 5667 5664 5661 5658 5655 5652 5649
5744 5743 5742 5741 5740 5739 5738 5737 5735 5734 5732 5730 5728 5726 5724 5722 5719 5716 5713 5710 5708 5704 5701 5698 5694 5691 5688 5684 5681 5678 5675 5672 5669 5666 5662 5659 5656 5653 5650 5647 5644 5641
5740 5739 5738 5737 5736 5735 5734 5733 5731 5729 5728 5726 5724 5722 5719 5717 5714 5711 5708 5705 5702 5699 5696 5692 5689 5686 5682 5679 5675 5672 5669 5666 5662 5658 5655 5652 5648 5645 5642 5639 5635 5632
5737 5736 5735 5734 5732 5731 5730 5729 5727 5725 5723 5721 5719 5717 5714 5711 5709 5706 5703 5700 5697 5694 5691 5687 5684 5681 5677 5674 5670 5666 5663 5659 5655 5651 5647 5644 5640 5637 5633 5630 5626 5623
5733 5732 5731 5730 5729 5727 5726 5725 5723 5721 5719 5717 5714 5712 5709 5707 5704 5701 5698 5695 5692 5689 5686 5683 5679 5676 5672 5669 5665 5661 5657 5653 5649 5644 5640 5637 5633 5629 5625 5621 5617 5613
5730 5729 5728 5726 5725 5724 5722 5721 5719 5717 5715 5712 5710 5707 5705 5702 5700 5697 5694 5691 5688 5685 5681 5678 5675 5671 5668 5664 5660 5656 5652 5647 5643 5639 5634 5630 5626 5622 5617 5612 5608 5603
5726 5725 5724 5723 5721 5720 5719 5717 5715 5713 5710 5708 5706 5703 5701 5698 5695 5692 5690 5687 5684 5681 5677 5674 5670 5667 5663 5659 5655 5651 5647 5642 5638 5633 5629 5624 5619 5614 5609 5604 5598 5593
5723 5722 5720 5719 5718 5716 5714 5712 5710 5708 5706 5704 5701 5699 5697 5694 5691 5688 5685 5682 5680 5677 5673 5670 5666 5662 5658 5654 5650 5646 5642 5637 5632 5628 5623 5618 5613 5608 5602 5596 5590 5583
5719 5718 5717 5715 5714 5712 5710 5708 5706 5704 5702 5700 5698 5695 5693 5690 5687 5684 5681 5679 5676 5672 5669 5665 5661 5657 5653 5649 5645 5640 5636 5632 5627 5622 5618 5613 5608 5601 5595 5589 5582 5574
5715 5714 5713 5711 5710 5708 5706 5704 5702 5700 5698 5696 5694 5692 5689 5686 5683 5680 5678 5675 5672 5668 5665 5661 5657 5653 5649 5644 5640 5635 5631 5627 5622 5618 5613 5607 5602 5595 5589 5582 5574 5566